Wind_Speed
10 11 12 14 15 16 16 16 16 16 17 17 17 17 16 16 16 16 16 15 14 14 12 12 11 11 10 9 8 7 6 5 4 4 4 4 3 3 3 3 4 5 6 6
9 11 11 12 14 14 15 16 15 16 15 16 16 16 16 16 16 16 16 15 14 14 12 12 12 11 10 9 8 7 7 6 6 5 4 4 3 3 3 4 4 5 5 6
7 10 11 12 13 14 15 15 15 15 14 14 15 15 15 16 16 15 15 15 14 14 13 12 12 11 10 10 9 8 8 8 7 5 5 4 4 4 4 4 4 5 5 5
7 8 9 11 12 13 14 14 15 14 14 14 14 13 14 14 14 13 13 13 14 14 13 13 12 11 10 10 10 9 9 8 8 7 6 5 5 4 5 5 5 5 5 6
7 8 9 10 11 11 12 13 15 14 14 14 14 13 13 13 12 12 12 13 14 14 13 13 12 11 10 10 11 10 10 9 8 8 7 6 5 5 5 6 6 6 6 6
6 8 9 10 10 10 12 12 13 13 12 12 13 12 12 12 12 12 13 13 13 14 13 13 12 12 11 11 11 11 10 9 9 8 8 7 7 7 7 6 7 7 7 7
6 7 8 10 10 10 10 12 12 12 12 12 12 12 11 12 12 12 13 14 14 14 14 13 12 12 12 12 12 11 11 10 9 9 9 9 9 8 8 8 8 8 8 7
5 6 7 9 9 9 10 11 11 12 11 11 11 11 11 11 11 12 12 13 14 15 15 14 13 12 12 13 12 12 12 12 11 10 10 10 10 10 10 10 10 9 9 9
5 5 7 7 7 8 10 10 10 10 9 9 10 10 11 11 11 11 12 13 13 14 14 14 14 13 12 13 13 13 13 12 12 12 12 12 12 12 12 11 11 11 10 10
4 5 6 7 7 8 9 9 10 10 8 9 9 10 10 11 11 11 11 12 12 13 13 14 14 13 13 13 13 14 14 13 13 13 13 13 13 13 13 12 12 12 12 12
5 5 6 7 7 8 8 8 8 8 8 9 8 9 10 10 10 10 10 11 11 12 12 13 13 13 13 13 13 14 14 14 14 14 14 14 14 14 14 14 14 13 13 13
5 5 6 7 7 7 7 7 7 7 7 8 9 9 10 10 10 10 11 11 11 11 12 12 12 13 13 13 13 13 14 15 15 15 15 14 14 15 15 15 15 14 14 14
6 6 6 7 7 7 8 7 7 7 8 8 8 9 10 10 10 10 11 11 11 12 12 12 12 12 13 13 14 14 14 14 15 15 15 14 15 15 15 15 15 15 15 15
6 6 7 8 8 8 8 8 8 8 9 9 9 10 10 10 10 11 11 11 12 12 13 13 13 13 13 13 14 14 14 15 15 15 15 15 15 16 16 16 16 17 17 17
6 6 7 7 7 8 8 9 9 9 9 10 10 10 11 11 10 10 11 12 12 12 13 14 14 14 14 14 14 15 15 16 16 16 16 17 17 17 17 18 18 18 18 18
6 6 6 7 7 7 8 9 9 10 10 10 11 11 12 12 11 11 12 12 13 13 13 14 14 14 15 15 15 16 17 17 17 17 18 18 18 18 18 19 18 18 18 19
9 9 8 8 8 8 9 9 9 10 10 11 11 12 12 12 12 13 13 13 13 13 13 14 15 15 16 16 16 17 18 18 19 19 19 20 20 19 19 19 19 19 20 20
10 10 10 9 10 10 9 10 10 11 11 12 12 13 13 13 13 14 14 14 14 15 15 15 16 16 16 17 17 18 19 19 20 20 20 20 20 20 20 20 20 21 21 21
13 12 12 11 11 10 11 11 11 11 11 12 12 13 14 14 14 15 15 15 16 16 16 17 17 18 18 18 18 19 19 20 20 20 20 21 21 21 21 21 22 22 22 23
15 14 14 13 13 13 12 12 12 13 13 12 13 13 14 14 15 15 16 16 17 17 17 18 19 19 20 19 20 20 20 20 21 21 21 21 22 22 22 23 23 24 24 25
18 17 16 16 15 14 13 13 13 13 13 14 14 15 15 16 16 16 17 17 18 18 19 19 20 20 20 21 21 21 21 21 22 22 22 23 23 23 24 24 25 25 25 26
20 20 19 18 18 16 15 15 15 15 15 15 15 16 16 17 18 18 18 19 19 20 20 20 20 20 21 22 22 22 23 23 23 24 24 24 24 25 25 26 26 27 27 27
22 21 21 20 20 19 19 19 18 18 18 17 17 18 18 18 18 19 20 20 20 20 20 21 22 22 22 23 23 24 24 24 25 25 25 26 26 26 26 27 28 28 29 29
24 24 23 23 22 21 21 21 21 20 20 20 20 20 20 20 20 20 21 21 21 21 22 22 23 23 24 24 25 25 26 26 26 26 27 27 28 28 28 29 30 30 31 31
25 25 25 24 23 23 23 23 23 22 22 22 22 21 21 22 22 22 23 23 23 23 24 24 25 25 26 26 27 27 27 27 28 28 28 29 29 30 30 31 32 32 32 33
25 26 26 25 25 25 25 25 25 24 23 23 23 23 23 23 23 23 24 25 26 26 27 27 27 27 28 28 28 28 29 29 29 30 30 31 31 32 32 32 33 34 34 34
Wind_Direction
191 190 190 195 198 200 202 202 203 205 206 208 207 208 212 214 216 213 210 210 211 209 210 210 212 215 212 209 213 215 223 229 233 235 238 239 251 272 296 323 337 343 352 357
183 186 185 187 193 196 197 200 202 205 207 208 207 211 212 215 217 214 212 211 212 211 211 214 216 215 213 214 217 221 226 232 234 235 238 243 255 268 287 308 323 331 341 349
183 184 185 184 192 197 198 198 200 204 206 208 209 210 210 213 215 213 214 213 213 210 211 215 215 214 217 219 222 229 233 233 230 231 237 247 260 270 282 298 308 317 330 339
178 178 179 184 188 193 194 192 194 197 203 206 207 208 207 209 212 214 212 211 211 208 211 212 212 217 219 222 227 233 231 230 230 235 242 249 263 278 284 288 297 304 315 323
173 171 176 184 186 187 189 191 192 195 201 206 209 210 210 210 209 208 209 209 209 207 208 209 212 217 222 226 231 235 231 231 235 240 244 250 263 275 284 287 292 298 307 315
171 167 169 172 174 178 181 185 190 196 201 205 207 210 211 209 206 208 208 209 209 208 210 210 213 220 228 232 234 234 232 234 239 242 245 252 262 271 279 286 293 298 304 311
142 158 160 166 174 177 181 183 183 189 198 203 204 209 210 209 212 212 212 212 212 213 213 213 219 228 233 234 233 234 239 243 246 247 250 256 263 271 277 282 288 293 299 304
141 161 165 167 172 178 179 179 185 191 198 203 207 210 209 209 212 213 216 215 215 217 216 219 225 232 236 237 237 239 244 247 249 251 255 261 265 270 277 281 284 289 295 295
146 161 170 169 171 177 179 182 186 191 201 209 212 213 214 211 212 214 217 218 219 219 220 223 229 236 240 242 242 243 247 250 252 254 259 264 266 270 275 278 281 285 290 294
162 168 175 179 179 183 182 183 188 194 200 208 210 216 218 216 217 216 214 214 217 222 225 226 230 238 243 246 246 246 249 253 256 258 260 266 269 270 273 276 279 281 284 288
172 181 183 192 193 190 189 194 197 200 205 205 211 216 217 215 218 219 217 218 221 222 226 230 233 238 244 247 248 250 253 256 259 261 263 266 269 272 273 275 278 281 281 284
187 194 200 204 202 198 202 207 207 209 215 218 221 222 222 220 224 224 221 223 225 228 231 233 235 242 246 248 250 254 257 258 259 262 264 265 268 272 274 275 277 278 279 282
204 208 212 219 224 221 222 224 222 217 219 222 226 231 226 224 229 230 227 227 230 234 236 237 240 244 247 248 252 255 258 260 261 263 266 267 269 271 272 273 274 276 277 279
215 215 218 223 230 231 229 230 229 225 223 225 230 233 232 230 232 232 231 232 236 238 238 241 245 250 252 252 256 258 261 263 264 266 267 268 268 270 271 273 275 276 276 278
221 227 234 234 235 234 232 232 232 233 231 227 228 231 231 234 235 236 237 238 238 240 242 246 251 254 255 257 259 261 263 265 267 267 268 269 270 271 271 273 276 276 277 279
234 236 242 246 246 244 241 242 244 243 240 237 235 234 239 241 242 243 244 244 245 246 247 250 253 254 256 258 261 264 267 267 269 270 270 271 272 272 272 274 276 277 279 280
245 245 247 250 255 255 250 250 252 248 245 245 243 243 246 247 249 248 247 248 250 251 253 254 256 257 259 261 262 265 269 270 270 271 271 272 273 272 273 275 276 277 279 280
244 246 247 246 248 248 250 248 249 251 250 250 249 248 250 252 253 252 251 252 253 254 254 256 256 258 262 264 265 268 269 269 270 272 272 271 271 271 273 275 276 278 280 281
246 249 249 249 250 251 250 252 251 253 253 253 247 247 249 252 253 255 255 256 256 256 257 260 261 261 264 267 269 270 271 270 271 272 273 273 273 273 274 276 277 279 280 280
247 250 252 254 255 257 255 255 255 255 255 252 251 250 250 252 255 255 257 259 259 260 261 262 263 263 263 267 270 271 271 272 273 273 273 274 275 275 275 276 278 279 280 281
249 251 252 255 259 260 258 257 259 257 255 252 253 255 256 258 259 259 259 261 261 261 262 264 266 265 264 266 269 271 272 272 273 274 274 274 275 276 277 278 279 280 282 282
248 251 252 254 258 259 259 260 261 261 261 261 260 262 263 264 263 262 262 263 264 265 265 266 266 265 265 266 268 270 271 272 273 274 275 275 276 277 278 278 280 281 282 283
248 250 253 255 257 259 260 262 264 265 265 265 265 267 268 268 268 267 266 267 268 269 270 269 267 266 267 268 269 271 272 273 274 275 276 277 278 279 279 280 281 282 283 284
250 251 253 255 257 259 261 262 263 265 266 266 266 267 267 267 267 267 268 269 270 271 272 273 273 271 271 271 271 272 273 274 274 275 276 277 279 280 280 280 281 282 283 285
251 251 253 255 256 259 261 262 263 265 266 266 266 267 267 267 267 266 267 269 270 271 272 274 274 274 274 273 273 272 273 273 273 274 276 277 278 279 280 280 282 283 284 285
250 251 253 254 255 257 260 261 263 265 266 268 269 269 270 271 269 267 267 269 271 272 273 274 274 275 275 274 274 273 273 273 274 275 276 277 278 278 279 280 282 283 284 285
Height
5840 5843 5845 5848 5850 5853 5856 5858 5861 5864 5867 5869 5872 5874 5876 5878 5881 5883 5885 5887 5889 5891 5893 5895 5897 5898 5899 5901 5902 5903 5903 5904 5904 5904 5904 5904 5904 5904 5903 5902 5901 5900 5899 5898
5841 5842 5845 5847 5849 5852 5855 5858 5860 5863 5865 5868 5870 5873 5875 5877 5879 5881 5884 5886 5888 5890 5892 5894 5895 5897 5898 5900 5901 5901 5902 5903 5903 5903 5903 5903 5903 5903 5902 5901 5901 5900 5899 5897
5841 5843 5844 5846 5848 5851 5853 5857 5859 5862 5864 5867 5870 5872 5874 5875 5877 5880 5882 5884 5886 5888 5891 5893 5894 5896 5897 5898 5899 5900 5901 5902 5902 5902 5902 5902 5902 5902 5901 5901 5900 5899 5898 5897
5841 5842 5844 5846 5848 5850 5853 5855 5858 5861 5864 5866 5869 5871 5873 5874 5876 5878 5880 5882 5885 5887 5889 5891 5893 5894 5896 5897 5898 5899 5900 5900 5901 5901 5901 5901 5901 5901 5900 5900 5899 5898 5897 5896
5842 5843 5844 5846 5848 5850 5852 5854 5857 5860 5863 5865 5867 5870 5872 5873 5875 5877 5878 5881 5883 5885 5887 5889 5891 5893 5894 5895 5897 5897 5898 5899 5899 5900 5900 5900 5900 5900 5899 5899 5898 5897 5896 5895
5842 5843 5844 5846 5848 5850 5852 5855 5857 5859 5862 5864 5866 5869 5871 5872 5874 5875 5877 5879 5881 5884 5886 5888 5890 5891 5892 5894 5895 5896 5896 5897 5898 5898 5898 5898 5899 5898 5898 5897 5897 5896 5895 5894
5843 5844 5845 5846 5848 5850 5852 5855 5858 5860 5861 5864 5865 5867 5870 5870 5872 5874 5876 5878 5880 5882 5884 5886 5888 5889 5891 5892 5893 5894 5895 5896 5896 5896 5897 5897 5897 5896 5896 5896 5895 5894 5893 5892
5845 5846 5846 5847 5849 5850 5852 5855 5859 5860 5862 5863 5864 5866 5868 5869 5870 5872 5874 5876 5878 5880 5882 5884 5886 5887 5889 5890 5891 5892 5893 5893 5894 5894 5895 5895 5895 5894 5894 5894 5893 5892 5891 5890
5846 5847 5847 5848 5849 5851 5852 5854 5857 5859 5861 5862 5863 5865 5866 5867 5869 5871 5872 5874 5876 5878 5880 5882 5883 5885 5886 5887 5888 5889 5890 5891 5891 5892 5892 5892 5892 5892 5892 5891 5891 5890 5889 5888
5846 5847 5848 5848 5850 5851 5853 5854 5856 5858 5860 5861 5863 5864 5865 5866 5868 5869 5870 5872 5874 5876 5877 5879 5881 5882 5883 5885 5886 5887 5887 5888 5888 5889 5889 5890 5889 5889 5889 5889 5888 5887 5886 5885
5846 5847 5848 5849 5850 5851 5853 5854 5855 5856 5858 5860 5862 5865 5863 5865 5866 5868 5869 5870 5872 5873 5875 5876 5878 5879 5881 5882 5883 5884 5884 5885 5885 5886 5886 5886 5886 5886 5886 5885 5885 5884 5883 5883
5845 5846 5847 5848 5849 5850 5852 5853 5854 5856 5857 5858 5860 5864 5862 5863 5864 5866 5867 5868 5870 5871 5873 5874 5875 5877 5878 5879 5880 5880 5881 5881 5882 5882 5882 5882 5882 5882 5882 5882 5881 5880 5880 5879
5845 5846 5847 5848 5851 5851 5851 5852 5853 5854 5855 5857 5858 5862 5859 5861 5862 5863 5865 5866 5867 5869 5870 5871 5873 5874 5875 5876 5876 5877 5878 5878 5878 5878 5879 5879 5879 5879 5878 5878 5877 5876 5876 5875
5844 5845 5847 5848 5848 5848 5849 5850 5851 5852 5854 5855 5856 5857 5858 5858 5860 5861 5862 5863 5865 5866 5867 5868 5869 5870 5871 5872 5873 5874 5874 5874 5874 5875 5875 5874 5874 5874 5874 5873 5873 5872 5871 5871
5842 5843 5844 5845 5845 5846 5847 5848 5849 5850 5851 5853 5854 5854 5855 5856 5857 5859 5860 5861 5862 5863 5864 5865 5866 5867 5868 5868 5869 5870 5870 5870 5870 5870 5870 5870 5870 5870 5869 5869 5868 5867 5867 5866
5840 5841 5842 5843 5844 5844 5845 5846 5847 5848 5849 5850 5851 5852 5853 5853 5855 5856 5857 5858 5859 5860 5861 5862 5863 5863 5864 5864 5865 5865 5866 5866 5866 5866 5866 5865 5865 5865 5864 5864 5863 5863 5862 5861
5838 5839 5840 5841 5842 5842 5844 5844 5845 5845 5846 5847 5848 5850 5850 5851 5852 5853 5854 5855 5856 5857 5858 5858 5859 5859 5860 5860 5861 5861 5861 5861 5861 5861 5861 5860 5860 5859 5859 5859 5858 5857 5857 5856
5836 5837 5838 5839 5840 5841 5843 5842 5842 5843 5843 5844 5845 5846 5847 5848 5849 5849 5850 5851 5852 5853 5854 5854 5854 5855 5855 5855 5856 5856 5856 5856 5856 5855 5855 5855 5854 5854 5854 5853 5852 5851 5851 5850
5833 5834 5835 5836 5837 5838 5839 5839 5839 5840 5840 5840 5841 5842 5843 5844 5845 5845 5846 5847 5848 5849 5849 5849 5850 5850 5850 5850 5850 5850 5850 5850 5850 5850 5850 5849 5849 5848 5848 5847 5846 5845 5844 5843
5829 5830 5832 5832 5833 5834 5836 5835 5835 5837 5837 5837 5838 5838 5839 5840 5841 5842 5842 5843 5843 5844 5844 5844 5844 5845 5845 5845 5845 5845 5845 5845 5844 5844 5844 5843 5843 5842 5842 5841 5840 5839 5838 5837
5825 5826 5827 5828 5829 5830 5831 5831 5832 5834 5834 5834 5834 5834 5835 5835 5836 5837 5837 5837 5838 5838 5838 5839 5839 5839 5839 5839 5839 5839 5839 5839 5838 5838 5837 5837 5836 5836 5835 5834 5833 5832 5831 5830
5820 5821 5822 5823 5825 5828 5826 5826 5828 5828 5828 5829 5829 5830 5830 5830 5831 5831 5831 5832 5832 5832 5833 5833 5833 5833 5833 5833 5833 5833 5833 5832 5832 5831 5831 5830 5830 5829 5828 5827 5826 5825 5823 5822
5814 5816 5817 5819 5821 5821 5821 5821 5822 5823 5823 5824 5824 5825 5825 5825 5825 5825 5826 5826 5826 5826 5826 5827 5827 5827 5827 5826 5826 5826 5826 5825 5825 5824 5824 5823 5822 5821 5820 5819 5818 5817 5815 5814
5808 5809 5810 5812 5813 5814 5815 5815 5816 5817 5817 5818 5818 5819 5819 5819 5819 5820 5820 5820 5820 5820 5820 5820 5820 5819 5819 5819 5819 5819 5818 5818 5817 5816 5816 5815 5814 5813 5812 5811 5809 5808 5806 5805
5801 5802 5803 5805 5807 5807 5808 5809 5809 5810 5811 5811 5812 5812 5812 5813 5813 5813 5813 5813 5813 5813 5813 5813 5812 5812 5812 5811 5811 5811 5810 5810 5809 5808 5807 5807 5806 5805 5803 5802 5800 5799 5797 5795
5794 5795 5796 5798 5799 5800 5801 5802 5802 5803 5804 5804 5805 5805 5806 5806 5806 5806 5806 5806 5806 5806 5805 5805 5804 5804 5803 5803 5802 5802 5801 5801 5800 5799 5799 5798 5797 5795 5794 5792 5791 5789 5787 5785